DW3765 Weather Reports


Display with metric or nautical units.
time (UTC)temp
F
wind
direction
speed
MPH
gust
MPH
rain 1hr
in
rain 24hr
in
rain mn
in
humidity
%
barometer
mb
20240304081707 67 161 9.0 15.0 0.00 0.00 0.00 91 1011.6
20240304081203 67 195 6.0 15.0 0.00 0.00 0.00 91 1011.5
20240304080711 67 178 6.0 10.0 0.00 0.00 0.00 91 1011.6
20240304080146 67 187 5.0 10.0 0.00 0.00 0.00 91 1011.7
20240304075653 68 186 6.0 16.0 0.00 0.00 0.00 91 1011.7
20240304075142 68 190 6.0 16.0 0.00 0.00 0.00 91 1011.6
20240304074628 68 173 7.0 14.0 0.00 0.00 0.00 91 1011.7
20240304074143 68 200 5.0 10.0 0.00 0.00 0.00 91 1011.6
20240304073649 68 178 6.0 14.0 0.00 0.00 0.00 91 1011.7
20240304073123 68 152 9.0 15.0 0.00 0.00 0.00 91 1011.7
20240304072628 68 162 9.0 15.0 0.00 0.00 0.00 90 1011.7
20240304072151 68 168 5.0 12.0 0.00 0.00 0.00 90 1011.7
20240304071636 68 165 6.0 18.0 0.00 0.00 0.00 90 1011.7
20240304071137 68 204 6.0 15.0 0.00 0.00 0.00 90 1011.8
20240304070633 68 194 7.0 15.0 0.00 0.00 0.00 90 1011.7
20240304070132 68 155 9.0 13.0 0.00 0.00 0.00 91 1011.7
20240304065639 68 180 7.0 11.0 0.00 0.00 0.00 91 1011.8
20240304065142 68 171 7.0 11.0 0.00 0.00 0.00 91 1011.9
20240304064647 68 184 5.0 12.0 0.00 0.00 0.00 91 1012.0
20240304064137 68 161 6.0 13.0 0.00 0.00 0.00 90 1012.0
20240304063641 68 163 7.0 13.0 0.00 0.00 0.00 90 1012.0
20240304063124 68 173 5.0 11.0 0.00 0.00 0.00 90 1011.9
20240304062649 68 211 7.0 12.0 0.00 0.00 0.00 90 1012.0
20240304062151 68 171 6.0 13.0 0.00 0.00 0.00 91 1011.9
20240304061625 68 142 9.0 13.0 0.00 0.00 0.00 91 1012.1
20240304061124 68 181 5.0 14.0 0.00 0.00 0.00 91 1012.1
20240304060628 68 143 8.0 14.0 0.00 0.00 0.00 91 1012.2
20240304060151 68 176 5.0 14.0 0.00 0.00 0.00 91 1012.2
20240304055638 68 172 6.0 14.0 0.00 0.00 0.00 90 1012.3
20240304055136 68 184 5.0 13.0 0.00 0.00 0.00 90 1012.2
20240304054651 68 187 8.0 13.0 0.00 0.00 0.00 90 1012.1
20240304054149 68 221 7.0 15.0 0.00 0.00 0.00 90 1012.1
20240304053714 68 184 9.0 22.0 0.00 0.00 0.00 90 1012.1
20240304053203 68 173 6.0 22.0 0.00 0.00 0.00 90 1012.1
20240304052727 68 198 7.0 14.0 0.00 0.00 0.00 90 1012.1
20240304052221 68 153 9.0 14.0 0.00 0.00 0.00 90 1012.2
20240304051628 68 167 8.0 13.0 0.00 0.00 0.00 90 1012.3
20240304051151 68 171 6.0 13.0 0.00 0.00 0.00 90 1012.2
20240304050624 68 169 8.0 14.0 0.00 0.00 0.00 90 1012.3
20240304050152 68 165 7.0 14.0 0.00 0.00 0.00 90 1012.3
20240304045240 68 164 7.0 13.0 0.00 0.00 0.00 89 1012.4
20240304044637 69 161 6.0 13.0 0.00 0.00 0.00 89 1012.5
20240304044153 68 168 7.0 12.0 0.00 0.00 0.00 89 1012.5
20240304043144 68 170 6.0 11.0 0.00 0.00 0.00 88 1012.5
20240304042135 69 119 9.0 13.0 0.00 0.00 0.00 88 1012.3
20240304041701 69 165 8.0 12.0 0.00 0.00 0.00 88 1012.4
20240304041211 69 196 6.0 12.0 0.00 0.00 0.00 88 1012.4
20240304040629 69 131 7.0 11.0 0.00 0.00 0.00 88 1012.4
20240304040142 69 150 6.0 11.0 0.00 0.00 0.00 87 1012.4
20240304035655 69 157 6.0 9.0 0.00 0.00 0.00 87 1012.4
20240304035216 69 187 5.0 9.0 0.00 0.00 0.00 87 1012.4
20240304034629 69 158 4.0 10.0 0.00 0.00 0.00 87 1012.4
20240304034156 70 154 6.0 9.0 0.00 0.00 0.00 87 1012.4
20240304033713 70 161 6.0 10.0 0.00 0.00 0.00 87 1012.4
20240304033125 70 173 5.0 9.0 0.00 0.00 0.00 87 1012.5
20240304032649 70 159 6.0 10.0 0.00 0.00 0.00 86 1012.4
20240304032142 70 155 4.0 10.0 0.00 0.00 0.00 86 1012.4
20240304031702 70 148 6.0 11.0 0.00 0.00 0.00 86 1012.2
20240304031221 70 161 7.0 11.0 0.00 0.00 0.00 86 1012.3
20240304030645 70 162 6.0 10.0 0.00 0.00 0.00 86 1012.2
20240304030142 70 169 5.0 9.0 0.00 0.00 0.00 86 1012.2
20240304025132 70 159 4.0 9.0 0.00 0.00 0.00 86 1012.2
20240304024651 70 157 5.0 10.0 0.00 0.00 0.00 85 1012.1
20240304024150 70 173 5.0 10.0 0.00 0.00 0.00 85 1012.0
20240304023137 70 149 3.0 10.0 0.00 0.00 0.00 85 1011.9
20240304022704 70 144 7.0 10.0 0.00 0.00 0.00 85 1011.9
20240304022217 70 144 5.0 7.0 0.00 0.00 0.00 85 1011.8
20240304021629 70 139 4.0 8.0 0.00 0.00 0.00 84 1011.8
20240304021158 70 146 3.0 8.0 0.00 0.00 0.00 84 1011.8
20240304020712 70 145 5.0 8.0 0.00 0.00 0.00 84 1011.7
20240304020213 70 135 5.0 8.0 0.00 0.00 0.00 84 1011.7
20240304015625 70 142 5.0 8.0 0.00 0.00 0.00 83 1011.6
20240304015205 70 144 4.0 9.0 0.00 0.00 0.00 83 1011.6
20240304014627 70 150 6.0 9.0 0.00 0.00 0.00 82 1011.4
20240304014144 71 156 6.0 9.0 0.00 0.00 0.00 82 1011.5
20240304013203 71 154 4.0 7.0 0.00 0.00 0.00 80 1011.5
20240304012701 71 159 4.0 6.0 0.00 0.00 0.00 80 1011.4
20240304012159 71 162 3.0 6.0 0.00 0.00 0.00 79 1011.3
20240304011657 71 162 2.0 6.0 0.00 0.00 0.00 79 1011.2
20240304011221 71 163 3.0 6.0 0.00 0.00 0.00 78 1011.2
20240304010637 71 161 2.0 6.0 0.00 0.00 0.00 78 1011.3
20240304010151 71 161 2.0 6.0 0.00 0.00 0.00 78 1011.1
20240304005717 71 161 3.0 6.0 0.00 0.00 0.00 77 1011.1
20240304005212 72 151 3.0 9.0 0.00 0.00 0.00 76 1011.0
20240304004714 72 149 5.0 9.0 0.00 0.00 0.00 76 1011.0
20240304004210 72 157 5.0 9.0 0.00 0.00 0.00 75 1011.0
20240304003708 72 171 4.0 8.0 0.00 0.00 0.00 74 1010.9
20240304003143 72 154 5.0 8.0 0.00 0.00 0.00 74 1010.9
20240304002650 73 149 4.0 8.0 0.00 0.00 0.00 73 1010.8
20240304002156 73 146 4.0 8.0 0.00 0.00 0.00 73 1010.8
20240304001630 73 193 4.0 10.0 0.00 0.00 0.00 72 1010.8
20240304001139 73 193 3.0 10.0 0.00 0.00 0.00 71 1010.8
20240304000701 73 178 7.0 10.0 0.00 0.00 0.00 71 1010.7
20240304000219 74 178 6.0 10.0 0.00 0.00 0.00 71 1010.7
20240303235722 74 165 5.0 11.0 0.00 0.00 0.00 71 1010.7
20240303235125 74 142 6.0 11.0 0.00 0.00 0.00 71 1010.7
20240303234641 74 157 7.0 16.0 0.00 0.00 0.00 71 1010.7
20240303233633 74 178 6.0 16.0 0.00 0.00 0.00 71 1010.7
20240303233150 74 117 8.0 16.0 0.00 0.00 0.00 70 1010.8
20240303232245 74 133 4.0 14.0 0.00 0.00 0.00 70 1010.5
20240303231634 74 178 5.0 14.0 0.00 0.00 0.00 70 1010.6
20240303231158 75 175 10.0 15.0 0.00 0.00 0.00 69 1010.5
20240303230717 75 201 9.0 15.0 0.00 0.00 0.00 69 1010.6
20240303230214 75 180 7.0 18.0 0.00 0.00 0.00 69 1010.7
20240303225733 75 155 11.0 18.0 0.00 0.00 0.00 69 1010.6
20240303225133 75 164 11.0 16.0 0.00 0.00 0.00 69 1010.5
20240303224651 75 158 10.0 19.0 0.00 0.00 0.00 70 1010.6
20240303224213 75 146 8.0 20.0 0.00 0.00 0.00 70 1010.6
20240303223138 77 163 9.0 18.0 0.00 0.00 0.00 65 1010.5
20240303222659 77 161 9.0 18.0 0.00 0.00 0.00 64 1010.4
20240303222210 77 164 5.0 16.0 0.00 0.00 0.00 65 1010.3
20240303221716 76 182 7.0 15.0 0.00 0.00 0.00 65 1010.5
20240303221125 76 191 9.0 18.0 0.00 0.00 0.00 65 1010.6
20240303220642 77 178 8.0 18.0 0.00 0.00 0.00 65 1010.6
20240303215637 77 136 11.0 22.0 0.00 0.00 0.00 65 1010.7
20240303215152 76 172 8.0 15.0 0.00 0.00 0.00 66 1010.6
20240303214717 76 189 9.0 19.0 0.00 0.00 0.00 65 1010.7
20240303214211 76 163 10.0 19.0 0.00 0.00 0.00 65 1010.7
20240303213716 77 184 9.0 15.0 0.00 0.00 0.00 65 1010.8
20240303213149 76 146 6.0 15.0 0.00 0.00 0.00 66 1010.7
20240303212647 76 161 9.0 16.0 0.00 0.00 0.00 66 1010.8
20240303212145 76 163 8.0 16.0 0.00 0.00 0.00 66 1010.8
20240303211642 76 186 6.0 19.0 0.00 0.00 0.00 66 1010.9
20240303211137 76 165 7.0 19.0 0.00 0.00 0.00 66 1010.9
20240303210659 76 244 10.0 19.0 0.00 0.00 0.00 65 1011.0
20240303210157 76 206 10.0 18.0 0.00 0.00 0.00 65 1011.0
20240303205652 76 146 11.0 16.0 0.00 0.00 0.00 66 1011.0
20240303205216 76 153 7.0 18.0 0.00 0.00 0.00 66 1011.0
20240303204711 76 144 11.0 18.0 0.00 0.00 0.00 65 1011.0
20240303204234 77 155 8.0 16.0 0.00 0.00 0.00 65 1011.1
20240303203623 76 169 8.0 16.0 0.00 0.00 0.00 66 1011.0
20240303203140 76 188 4.0 23.0 0.00 0.00 0.00 65 1011.1
20240303202704 77 169 12.0 23.0 0.00 0.00 0.00 64 1011.1
20240303202215 77 234 10.0 21.0 0.00 0.00 0.00 64 1011.1
20240303201741 76 221 10.0 21.0 0.00 0.00 0.00 66 1011.2
20240303201127 76 151 8.0 20.0 0.00 0.00 0.00 68 1011.2
20240303200643 75 191 6.0 21.0 0.00 0.00 0.00 68 1011.4
20240303195637 75 123 11.0 18.0 0.00 0.00 0.00 68 1011.5
20240303195153 76 171 10.0 20.0 0.00 0.00 0.00 67 1011.7
20240303194718 76 214 9.0 21.0 0.00 0.00 0.00 67 1011.6
20240303194127 76 165 8.0 19.0 0.00 0.00 0.00 67 1011.8
20240303193653 75 202 7.0 19.0 0.00 0.00 0.00 69 1012.0
20240303192627 74 240 12.0 22.0 0.00 0.00 0.00 71 1012.1
20240303192153 73 194 8.0 21.0 0.00 0.00 0.00 74 1012.3
20240303191649 73 221 11.0 21.0 0.00 0.00 0.00 72 1012.4
20240303190647 72 176 8.0 19.0 0.00 0.00 0.00 72 1012.6
20240303190201 73 182 9.0 18.0 0.00 0.00 0.00 73 1012.6
20240303185144 73 203 8.0 15.0 0.00 0.00 0.00 72 1012.8
20240303184651 73 201 4.0 16.0 0.00 0.00 0.00 73 1012.7
20240303184147 73 143 9.0 15.0 0.00 0.00 0.00 73 1012.7
20240303183710 72 193 8.0 12.0 0.00 0.00 0.00 74 1012.9
20240303183216 72 182 8.0 19.0 0.00 0.00 0.00 73 1013.1
20240303182714 72 169 9.0 21.0 0.00 0.00 0.00 74 1013.0
20240303182210 72 208 10.0 21.0 0.00 0.00 0.00 73 1012.9
20240303181215 72 186 9.0 19.0 0.00 0.00 0.00 74 1013.0
20240303180627 72 203 9.0 19.0 0.00 0.00 0.00 75 1013.2
20240303180142 72 194 7.0 19.0 0.00 0.00 0.00 76 1013.4
20240303175642 71 201 7.0 13.0 0.00 0.00 0.00 77 1013.4
20240303175151 71 192 7.0 12.0 0.00 0.00 0.00 77 1013.5
20240303174216 71 200 10.0 21.0 0.00 0.00 0.00 77 1013.9
20240303173723 71 206 9.0 21.0 0.00 0.00 0.00 77 1014.0
20240303173213 71 203 9.0 19.0 0.00 0.00 0.00 78 1014.0
20240303172707 71 232 10.0 16.0 0.00 0.00 0.00 79 1014.2
20240303172159 70 202 8.0 16.0 0.00 0.00 0.00 79 1014.2
20240303171726 70 154 9.0 15.0 0.00 0.00 0.00 81 1014.2
20240303171217 69 163 8.0 12.0 0.00 0.00 0.00 81 1014.2
20240303170630 69 186 5.0 14.0 0.00 0.00 0.00 82 1014.2
20240303170152 69 165 7.0 14.0 0.00 0.00 0.00 83 1014.3
20240303165709 68 163 7.0 11.0 0.00 0.00 0.00 83 1014.4
20240303165130 68 182 7.0 10.0 0.00 0.00 0.00 84 1014.5
20240303164645 68 163 5.0 10.0 0.00 0.00 0.00 84 1014.5
20240303164151 68 162 6.0 10.0 0.00 0.00 0.00 84 1014.6
20240303163705 68 171 6.0 14.0 0.00 0.00 0.00 84 1014.5
20240303163222 67 214 6.0 14.0 0.00 0.00 0.00 84 1014.5
20240303162644 67 207 8.0 14.0 0.00 0.00 0.00 85 1014.6
20240303162140 67 180 7.0 13.0 0.00 0.00 0.00 85 1014.5
20240303161701 67 159 9.0 13.0 0.00 0.00 0.00 84 1014.4
20240303161218 67 150 6.0 10.0 0.00 0.00 0.00 84 1014.6
20240303160631 67 182 5.0 11.0 0.00 0.00 0.00 85 1014.5
20240303160159 67 186 7.0 11.0 0.00 0.00 0.00 84 1014.5
20240303155716 67 178 5.0 10.0 0.00 0.00 0.00 85 1014.5
20240303155243 66 169 7.0 10.0 0.00 0.00 0.00 85 1014.4
20240303154739 66 162 7.0 12.0 0.00 0.00 0.00 86 1014.4
20240303154135 66 167 7.0 12.0 0.00 0.00 0.00 86 1014.3
20240303153651 66 162 4.0 10.0 0.00 0.00 0.00 87 1014.2
20240303152648 65 190 4.0 9.0 0.00 0.00 0.00 88 1014.6
20240303152204 65 192 5.0 10.0 0.00 0.00 0.00 88 1014.5
20240303151725 65 190 6.0 10.0 0.00 0.00 0.00 89 1014.5
20240303151210 65 195 5.0 9.0 0.00 0.00 0.00 89 1014.5
20240303150731 64 206 5.0 9.0 0.00 0.00 0.00 90 1014.4
20240303150203 64 188 4.0 7.0 0.00 0.00 0.00 90 1014.5
20240303145719 64 191 1.0 7.0 0.00 0.00 0.00 90 1014.4
20240303145216 64 179 1.0 8.0 0.00 0.00 0.00 90 1014.4
20240303144640 64 180 5.0 8.0 0.00 0.00 0.00 90 1014.5
20240303144154 64 186 5.0 10.0 0.00 0.00 0.00 90 1014.4
20240303143221 64 167 6.0 8.0 0.00 0.00 0.00 91 1014.5
20240303142719 64 173 2.0 7.0 0.00 0.00 0.00 91 1014.5
20240303142140 63 171 3.0 8.0 0.00 0.00 0.00 91 1014.4
20240303141654 63 178 3.0 7.0 0.00 0.00 0.00 91 1014.4
20240303141149 63 178 5.0 7.0 0.00 0.00 0.00 91 1014.3
20240303140148 63 184 3.0 7.0 0.00 0.00 0.00 91 1014.1
20240303135652 63 184 5.0 7.0 0.00 0.00 0.00 91 1013.9
20240303135148 63 188 4.0 7.0 0.00 0.00 0.00 91 1014.1
20240303134213 63 187 3.0 6.0 0.00 0.00 0.00 91 1014.0
20240303133626 63 188 3.0 6.0 0.00 0.00 0.00 91 1014.0
20240303133206 63 188 4.0 6.0 0.00 0.00 0.00 90 1014.0
20240303132704 63 188 4.0 6.0 0.00 0.00 0.00 90 1014.2
20240303132158 63 190 3.0 6.0 0.00 0.00 0.00 90 1014.2
20240303131716 63 190 4.0 6.0 0.00 0.00 0.00 90 1014.1
20240303131130 63 190 3.0 7.0 0.00 0.00 0.00 90 1014.1
20240303130628 63 190 4.0 7.0 0.00 0.00 0.00 90 1014.1
20240303130149 63 191 2.0 5.0 0.00 0.00 0.00 90 1014.1
20240303125658 63 192 2.0 5.0 0.00 0.00 0.00 90 1014.1
20240303125211 63 192 3.0 5.0 0.00 0.00 0.00 90 1014.1
20240303124716 63 192 2.0 7.0 0.00 0.00 0.00 90 1014.1
20240303124152 63 192 4.0 7.0 0.00 0.00 0.00 90 1014.0
20240303123142 63 192 5.0 8.0 0.00 0.00 0.00 90 1014.0
20240303122656 63 189 5.0 7.0 0.00 0.00 0.00 90 1014.0
20240303122212 63 188 3.0 7.0 0.00 0.00 0.00 90 1013.9
20240303121736 63 190 3.0 7.0 0.00 0.00 0.00 90 1013.9
20240303121128 63 192 2.0 8.0 0.00 0.00 0.00 90 1013.9
20240303120656 63 193 5.0 8.0 0.00 0.00 0.00 90 1013.7
20240303120211 63 194 4.0 8.0 0.00 0.00 0.00 90 1013.7
20240303115145 63 198 4.0 11.0 0.00 0.00 0.00 90 1013.8
20240303114657 63 196 5.0 11.0 0.00 0.00 0.00 90 1013.6
20240303114200 63 203 4.0 9.0 0.00 0.00 0.00 90 1013.4
20240303113717 63 197 5.0 10.0 0.00 0.00 0.00 90 1013.5
20240303113220 63 234 5.0 10.0 0.00 0.00 0.00 90 1013.4
20240303112736 63 196 4.0 9.0 0.00 0.00 0.00 90 1013.5
20240303112125 63 202 4.0 8.0 0.00 0.00 0.00 90 1013.5
20240303111652 63 209 2.0 8.0 0.00 0.00 0.00 90 1013.4
20240303110639 63 202 5.0 10.0 0.00 0.00 0.00 90 1013.2
20240303105637 63 192 4.0 9.0 0.00 0.00 0.00 90 1013.2
20240303105203 63 190 2.0 7.0 0.00 0.00 0.00 91 1013.1
20240303104701 63 194 5.0 11.0 0.00 0.00 0.00 90 1013.1
20240303104224 63 189 5.0 13.0 0.00 0.00 0.00 90 1013.1
20240303103720 63 178 7.0 13.0 0.00 0.00 0.00 90 1012.9
20240303103218 63 188 5.0 10.0 0.00 0.00 0.00 90 1012.9
20240303102630 63 202 4.0 10.0 0.00 0.00 0.00 90 1013.0
20240303102157 63 180 6.0 11.0 0.00 0.00 0.00 91 1012.9
20240303101225 63 153 8.0 15.0 0.00 0.00 0.00 91 1012.8
20240303100627 63 223 7.0 13.0 0.00 0.00 0.00 90 1013.0
20240303100148 63 198 5.0 13.0 0.00 0.00 0.00 90 1013.0
20240303095223 63 194 5.0 13.0 0.00 0.00 0.00 91 1013.1
20240303094718 63 193 5.0 13.0 0.00 0.00 0.00 91 1013.1
20240303094220 63 226 8.0 13.0 0.00 0.00 0.00 91 1013.2
20240303093630 63 208 7.0 11.0 0.00 0.00 0.00 91 1013.3
20240303093155 63 198 4.0 9.0 0.00 0.00 0.00 91 1013.2
20240303092653 63 181 2.0 10.0 0.00 0.00 0.00 91 1013.0
20240303092150 62 231 5.0 10.0 0.00 0.00 0.00 91 1013.2
20240303091148 62 196 8.0 12.0 0.00 0.00 0.00 91 1013.3
20240303090644 62 186 7.0 12.0 0.00 0.00 0.00 91 1013.3
20240303085639 62 184 6.0 12.0 0.00 0.00 0.00 91 1013.4
20240303085155 62 212 4.0 11.0 0.00 0.00 0.00 91 1013.5
20240303084653 62 187 4.0 11.0 0.00 0.00 0.00 91 1013.5
20240303084151 62 188 5.0 11.0 0.00 0.00 0.00 91 1013.7
20240303083720 62 180 4.0 11.0 0.00 0.00 0.00 90 1013.9
20240303083214 62 188 6.0 11.0 0.00 0.00 0.00 90 1013.9
20240303082711 62 196 4.0 11.0 0.00 0.00 0.00 90 1014.0
20240303082208 62 195 6.0 11.0 0.00 0.00 0.00 90 1014.0